Location: Alpen
(46.9000°N, 15.8000°E)
Time: 23:40:35
(UTC+00:00)

Daily predictions for brighter satellites

Satellite Brightness Start Highest point End
(mag) Time Altitude Azimuth Time Altitude Azimuth Time Altitude Azimuth
Cosmos 1603 4.0 15:36:34 10° SSW 15:42:18 75° WNW 15:48:05 10° NNE
SL-16 R/B 4.0 15:38:38 10° W 15:43:14 24° NW 15:47:51 10° N
USA 234 3.8 15:37:12 10° SE 15:43:42 68° SW 15:50:13 10° NW
Cosmos 1939 Rocket 3.3 15:43:44 10° SE 15:47:39 44° ENE 15:51:35 10° N
NOSS 2-1 (D) 3.7 15:47:36 10° S 15:50:40 34° ESE 15:53:39 10° NE
Okean 3 Rocket 3.9 15:47:11 10° N 15:51:34 46° ENE 15:55:54 10° SSE
GEOS 3 Rocket 4.1 15:50:39 10° ESE 15:55:28 39° NE 16:00:15 10° NNW
ATLAS 3B R/B 3.5 15:48:20 10° NW 15:55:28 65° WSW 16:02:52 10° SSE
Cosmos 1862 3.4 15:54:40 10° N 15:58:35 54° ENE 16:02:29 10° SSE
Cosmos 1461 2.9 15:54:47 10° SSW 15:59:02 70° SE 16:03:09 10° NE
Cosmos 2098 Rocket 4.1 15:53:18 10° N 15:59:26 80° E 16:06:34 10° S
USA 308 3.4 15:55:45 10° SW 15:59:50 49° SE 16:03:43 11° ENE
CZ-2D R/B 4.1 15:56:36 10° SE 15:59:53 28° ENE 16:03:12 10° N
ATLAS 5 CENTAUR R/B 3.5 15:55:23 10° NW 16:00:49 50° WSW 16:07:12 10° SSE
SL-4 R/B 4.2 15:56:43 10° WNW 16:00:53 34° SW 16:05:10 10° SSE
PSLV R/B 4.3 15:58:15 10° SE 16:01:33 32° ENE 16:04:53 10° N
CZ-2C R/B 3.2 16:00:14 10° S 16:05:20 78° WSW 16:10:14 10° NNW
Cosmos 1943 4.0 16:00:28 10° SW 16:05:56 50° WNW 16:11:24 10° NNE
CZ-4C R/B 4.1 16:01:14 10° NNW 16:05:59 21° NNE 16:10:57 11° ENE
SJ 16-02 1.5 16:02:16 10° N 16:06:32 48° ENE 16:10:47 10° SE
FengYun 1-2 T 4.3 16:02:46 10° SSE 16:08:23 85° ENE 16:14:00 10° NNW
Cosmos-2242 3.8 16:04:14 10° SSW 16:08:29 55° WNW 16:12:43 10° N
NOAA 6 4.0 16:06:46 10° SSE 16:11:54 76° ENE 16:17:04 10° NNW
CZ-4B R/B 3.7 16:07:54 10° SE 16:12:51 36° ENE 16:17:43 10° N
CORIOLIS 4.1 16:08:38 10° SSE 16:13:58 71° ENE 16:19:22 10° N
Cosmos 1842 Rocket 4.1 16:10:47 10° SSE 16:14:50 36° E 16:18:56 10° NNE
Cosmos 1833 Rocket 4.3 16:13:31 10° SE 16:16:06 13° E 16:17:01 13° E
CZ-4B R/B 3.9 16:14:36 10° S 16:18:48 53° W 16:22:48 10° NNW
CZ-4 R/B 3.5 16:24:42 11° NNE 16:24:42 11° NNE 16:25:04 10° NNE
Iridium 2 3.8 16:21:55 10° N 16:25:42 78° W 16:29:26 10° S
Cosmos 1766 Rocket 3.9 16:22:34 10° NNW 16:26:54 69° W 16:31:13 10° S
USA 305 2.8 16:26:31 10° SW 16:30:45 88° SSE 16:33:32 21° ENE
Cosmos 1606 2.5 16:27:29 10° S 16:31:14 73° E 16:34:59 10° NNE
ARGOS 3.6 16:28:06 10° SE 16:33:07 40° ENE 16:38:08 10° N
Okean O Rocket 2.1 16:31:49 10° SE 16:35:54 38° ENE 16:40:02 10° N
USA 276 2.6 16:34:09 10° WNW 16:37:11 44° N 16:38:19 30° NE
COSMO-SKYMED 1 3.1 16:34:17 14° NNE 16:37:40 36° E 16:41:41 10° SSE
Cosmos 1464 Rocket 4.0 16:33:25 10° S 16:39:47 87° E 16:46:12 10° N
ERBS 2.6 16:43:27 10° SSW 16:46:32 45° SE 16:47:12 38° E
Cosmos 1763 Rocket 4.2 16:43:03 10° SSE 16:47:23 30° E 16:48:40 26° ENE
Meteor 2-19 Rocket 4.4 16:42:00 10° N 16:48:07 90° SW 16:54:12 10° S
Cosmos 2221 2.5 16:45:02 10° S 16:49:17 86° W 16:53:36 10° N
NOSS 2-1 (E) 3.2 16:47:28 10° SW 16:50:42 58° NW 16:52:18 27° NNE
USA 267 4.0 16:47:44 18° NE 16:52:19 43° NNW 16:58:24 10° W
CZ-2C R/B 2.7 16:48:27 10° NNE 16:53:37 53° E 16:58:40 10° S
ISS -3.0 16:50:43 10° W 16:53:59 41° NNW 16:54:50 34° NNE
Cosmos 1340 Rocket 2.7 16:52:24 10° N 16:56:28 69° ENE 17:00:30 10° SSE
deb Chang Zheng 4 3.4 16:52:46 10° SSE 16:57:02 74° ENE 17:01:22 10° N
YAOGAN 1 3.7 16:58:27 25° NNE 16:58:27 25° NNE 17:00:52 10° N
Cosmos 1933 3.8 16:53:37 10° SSE 16:57:23 38° E 16:57:32 38° E
deb Kosmos-1763 3.8 16:54:17 10° SSW 16:57:42 89° W 16:59:07 33° NNE
Cosmos 990 Rocket 4.0 16:55:34 10° NNW 17:00:43 55° ENE 17:05:47 10° SE
Nadezhda 4 Rocket 4.1 16:54:29 10° N 17:00:49 82° W 17:07:08 10° S
Cosmos 1271 Rocket 4.5 16:57:26 10° SW 17:00:59 32° WNW 17:04:34 10° N
SKYMED 3 4.5 16:58:37 18° NNE 17:01:50 64° ESE 17:06:08 10° S
SL-19 R/B 4.4 16:56:07 10° NNE 17:02:01 70° ESE 17:08:21 10° S
USA 306 3.1 16:58:16 10° WSW 17:02:30 64° NNW 17:04:01 36° NE
USA 229 DEB 4.0 16:55:45 10° NW 17:02:49 53° NE 17:07:26 24° ESE
USA 229 4.1 16:55:50 10° NW 17:02:55 52° NE 17:07:28 24° ESE
Lacrosse 5 rocket 3.0 17:00:14 10° NW 17:03:05 19° N 17:03:54 18° N
Landsat 5 3.6 17:02:19 35° NE 17:03:40 49° E 17:07:41 10° S
Cosmos 1092 Rocket 3.9 17:01:27 10° N 17:07:48 70° E 17:14:08 10° SSE
Cosmos 1408 Rocket 4.3 17:04:26 10° NNW 17:08:38 53° W 17:12:52 10° S
ATLAS 2AS CENTAUR R/B 4.3 17:03:18 10° W 17:10:03 31° NNW 17:15:29 14° NNE
CZ-4 R/B 4.3 17:06:12 10° SSE 17:10:18 75° ENE 17:14:27 10° N
Cosmos 1743 Rocket 3.4 17:06:19 10° N 17:10:40 87° E 17:14:59 10° S
SL-16 R/B 4.3 17:10:26 10° N 17:11:16 11° NNE 17:11:16 11° NNE
H-2A R/B 2.5 17:07:23 10° S 17:12:38 63° WSW 17:17:46 10° NNW
Cosmos 1697 Rocket 2.9 17:07:36 10° NNW 17:13:02 46° NE 17:14:22 39° E
Cosmos 1980 Rocket 3.2 17:08:29 10° N 17:12:43 27° NE 17:12:43 27° NE
COSMOS 2406 4.0 17:10:45 10° SSE 17:15:10 31° ESE 17:15:10 31° ESE
Meteor 1-26 Rocket 4.5 17:11:37 10° SSE 17:17:14 49° E 17:20:06 28° NE
USA 307 3.2 17:13:23 10° WSW 17:17:37 58° NNW 17:18:33 46° NNE
SJ-11-01 4.2 17:13:07 10° SSE 17:17:52 88° WSW 17:22:39 10° NNW
Cosmos 44 3.0 17:14:29 10° NW 17:19:21 81° NE 17:20:56 41° SE
Cosmos 2082 Rocket 4.2 17:15:43 10° SSE 17:16:18 12° SE 17:16:18 12° SE
Cosmos 2034 Rocket 4.3 17:15:05 10° SSW 17:21:14 67° WNW 17:27:23 10° N
ATLAS CENTAUR R/B 3.0 17:18:08 10° WSW 17:21:51 31° NW 17:23:56 21° N
Cosmos 1627 Rocket 4.3 17:17:01 10° N 17:23:16 77° E 17:29:25 10° SSE
Meteor 2-14 Rocket 4.3 17:17:46 10° N 17:23:55 69° E 17:29:58 10° SSE
Lacrosse 5 3.6 17:20:05 10° WNW 17:24:35 32° SW 17:29:04 10° S
SKYMED 2 3.7 17:22:52 20° N 17:25:50 73° WNW 17:30:08 10° SSW
NOSS 3-1 (A) 4.0 17:18:53 10° NW 17:26:15 71° NE 17:31:39 25° SE
Cosmos 1428 Rocket 4.3 17:20:08 10° N 17:26:17 82° E 17:32:26 10° S
Cosmos 1809 Rocket 4.3 17:22:39 10° N 17:28:48 86° E 17:34:54 10° S
Cosmos 1898 Rocket 3.4 17:24:19 10° NNW 17:29:37 71° ENE 17:31:16 43° SE
MOS 1-B Rocket 4.2 17:25:03 10° N 17:30:40 68° WNW 17:36:46 10° SSW
NOSS 3-1 (C) 4.2 17:23:42 10° NW 17:31:11 79° SW 17:39:57 10° SSE
Cosmos 1656 3.8 17:26:43 10° NNW 17:32:13 72° WSW 17:37:46 10° SSE
GEOS 3 Rocket 4.4 17:28:17 10° SSE 17:33:24 51° WSW 17:38:28 10° NW
Cosmos 2084 4.4 17:31:01 10° NNW 17:33:54 36° N 17:33:54 36° N
Meteor 2-21 Rocket 4.3 17:29:53 10° N 17:36:00 64° ENE 17:42:01 10° SSE
NOAA 15 4.4 17:31:10 10° SSE 17:36:27 75° ENE 17:41:45 10° N
SL-08 RB Rocket 3.8 17:34:13 10° S 17:38:53 80° WSW 17:43:34 10° NNW
USA 308 3.5 17:35:41 10° W 17:39:45 46° NNW 17:39:45 46° NNW
Cosmos 468 Rocket 3.8 17:36:58 10° SSW 17:42:06 84° ESE 17:42:42 70° NE
Cosmos 2279 Rocket 3.9 17:37:26 10° S 17:43:29 58° E 17:43:29 58° E
SJ 16-02 4.1 17:41:43 10° NW 17:44:43 18° W 17:47:44 10° SW
Cosmos 2360 4.0 17:42:24 10° NNW 17:48:10 75° ENE 17:48:27 73° E
Cosmos 1634 Rocket 4.0 17:43:16 10° S 17:49:35 84° W 17:55:58 10° N
Cosmos 1805 Rocket 4.2 17:48:17 10° NNW 17:52:32 54° W 17:56:44 10° S
CZ-4C R/B 3.3 17:49:46 10° NNW 17:56:09 43° NE 17:56:09 43° NE
CZ-4 R/B 3.8 18:00:41 15° NNW 18:00:41 15° NNW 18:01:30 10° NNW
Cosmos 1833 Rocket 2.6 17:53:29 10° SSW 17:58:47 79° S 17:58:47 79° S
ATLAS 5 CENTAUR R/B 3.5 17:53:42 10° NW 17:58:54 34° NNW 17:58:54 34° NNW
Cosmos 540 Rocket 4.5 17:59:33 10° SSW 18:02:28 35° SSW 18:02:28 35° SSW
Okean O Rocket 3.8 18:08:43 10° SSW 18:12:21 25° W 18:16:01 10° NW
ATLAS CENTAUR R/B 3.1 18:12:05 10° WSW 18:19:17 58° W 18:19:17 58° W
Cosmos 1937 Rocket 4.3 18:16:55 10° NNW 18:21:05 49° WNW 18:21:05 49° WNW
USA 267 4.2 18:35:05 37° N 18:35:05 37° N 18:40:22 10° WNW
Cosmos 1697 Rocket 4.3 18:51:55 10° NW 18:56:10 30° W 18:56:10 30° W
Cosmos 1980 Rocket 4.0 18:52:09 10° NNW 18:54:30 25° NW 18:54:30 25° NW
CZ-4C R/B 4.4 19:38:09 10° NW 19:41:21 30° NW 19:41:21 30° NW
